STARLINK-37108, 68218

Orbit data source: Space-Track

STARLINK-37108, 68218 is a payload satellite owned by SpaceX/Seattle (US) in SSO that was launched on Tue, 17 Mar 2026 UTC via an FALCON 9 launch vehicle from the Air Force Western Test Range (AFWTR). Payload-class satellites include a variety of spacecraft equipped with specific instruments for various scientific and technological missions. These include communications satellites like Starlink; space stations such as the ISS; scientific satellites like the Hubble; Earth observation satellites from companies like Planet Labs, Umbra, and HawkEye 360; GPS; miniature CubeSats for education and research; and military/defense satellites.

Loading next visibility...
Identifier
68218, 2026-053M
Orbit
SSO
Country
Flag of USUS
Related business
Manufacturer
SpaceX/Seattle
Mission
Operational spacecraft
Bus & Motor
STARLINK V2MO, Unknown motor
Mass
575 kg wet, ~530 kg dry
Launch date (UTC)
2026-03-17 (3 months ago)
Launch vehicle
FALCON 9
Launch site
Air Force Western Test Range (AFWTR)
Object type
Payload
Rocket body
Debris
Shape & HBR
Unknown shape, 17.7 m
Radar Cross Section
Large (>1 m²)

Expand to show TLE details & history
Last TLE update: 15 hours ago

TLE from 15 hours ago
0 STARLINK-37108
1 68218U 26053M   26171.23474956  .00022889  00000-0  70901-3 0  9997
2 68218  97.2892  46.3157 0000799 109.0347 251.0982 15.33452422 15935
Epoch: 2026-06-20T05:38Z
TLE epoch observation values (Epoch: 2026-06-20T05:38:02.361Z)
Latitude
-0.00009°
Longitude
53.35358°
Altitude
468.81 km
Speed
7.632 km/s
True Right ascension
03h 05m 15s
True Declination
0° 00' 00"
Sunlit
Object was in daylight at epoch
Visualization orbit readout
Latitude
Unknown
Longitude
Unknown
Altitude
Unknown
Speed
Unknown
Apparent Right ascension
Unknown
Apparent Declination
Unknown
Sunlit
N/A
Visualization observer readout
Local Sidereal Time
07:22:58
Azimuth
Unknown
Elevation
Unknown
Doppler factor
Unknown
Orbital elements
Apogee altitude
463.011 km
Perigee altitude
461.917 km
Semi-major axis
6,840.601 km
Eccentricity
0.00008
Inclination
97.2892°
RAAN
46.3157°
Arg. of periapsis
109.0347°
True anomaly
251.08954°
Mean anomaly
251.0982°
Eccentric anomaly
251.09387°
Mean motion
3.8362 °/min
Orbital period
93.84 mins
BSTAR
0.00070901
Loading maneuver chart data...
Computing Atmospheric mass density...
Loading historical data...
Loading historical data...
Loading historical data...
Loading historical data...
Loading historical data...
Loading historical data...
Loading historical data...

Documentation

Showing up to 5 results
|